LOT4M EGLL-EPWA

Flight info

Callsign LOT4M
Flight time N/A
Altitude 39000
Route BPK Q295 MATCH DCT REDFA DCT TACHA DCT GARLU DCT ALUKA DCT EKBUT L619 DENKO P851 BIMPA
Aircraft B736/M-SDE2E3FGHIRWXY/LB1

Departure

Time 2026-05-05 17:16
Airport London Heathrow Airport (EGLL)

Arrival

Time N/A
Airport Warsaw Chopin Airport (EPWA)
Time Latitude Longitude Altitude Speed Heading
2026-05-05 16:49 51.47220 -0.47712 89 ft 0 kts 90°
2026-05-05 17:04 51.47220 -0.47723 89 ft 2 kts 89°
2026-05-05 17:04 51.47221 -0.47749 90 ft 3 kts 94°
2026-05-05 17:04 51.47223 -0.47775 91 ft 2 kts 100°
2026-05-05 17:04 51.47226 -0.47801 90 ft 2 kts 107°
2026-05-05 17:05 51.47233 -0.47826 90 ft 2 kts 118°
2026-05-05 17:05 51.47242 -0.47848 90 ft 2 kts 133°
2026-05-05 17:05 51.47255 -0.47865 90 ft 2 kts 154°
2026-05-05 17:05 51.47270 -0.47873 89 ft 2 kts 172°
2026-05-05 17:06 51.47279 -0.47874 89 ft 0 kts 180°
2026-05-05 17:08 51.47275 -0.47874 89 ft 2 kts 179°
2026-05-05 17:08 51.47235 -0.47871 88 ft 9 kts 179°
2026-05-05 17:08 51.47172 -0.47869 88 ft 9 kts 180°
2026-05-05 17:09 51.47110 -0.47869 88 ft 9 kts 178°
2026-05-05 17:09 51.47051 -0.47868 88 ft 8 kts 180°
2026-05-05 17:09 51.46992 -0.47868 87 ft 8 kts 179°
2026-05-05 17:09 51.46927 -0.47869 86 ft 15 kts 181°
2026-05-05 17:10 51.46865 -0.47869 85 ft 1 kts 178°
2026-05-05 17:10 51.46858 -0.47869 85 ft 1 kts 179°
2026-05-05 17:10 51.46850 -0.47869 84 ft 1 kts 179°
2026-05-05 17:10 51.46842 -0.47869 84 ft 1 kts 179°
2026-05-05 17:11 51.46839 -0.47869 84 ft 0 kts 180°
2026-05-05 17:12 51.46785 -0.47870 84 ft 10 kts 180°
2026-05-05 17:12 51.46708 -0.47867 83 ft 11 kts 179°
2026-05-05 17:13 51.46655 -0.47940 85 ft 11 kts 260°
2026-05-05 17:13 51.46653 -0.48063 84 ft 11 kts 269°
2026-05-05 17:13 51.46652 -0.48113 85 ft 0 kts 269°
2026-05-05 17:14 51.46652 -0.48124 85 ft 7 kts 269°
2026-05-05 17:14 51.46605 -0.48208 85 ft 12 kts 192°
2026-05-05 17:14 51.46520 -0.48212 85 ft 12 kts 178°
2026-05-05 17:14 51.46479 -0.48118 84 ft 12 kts 89°
2026-05-05 17:15 51.46486 -0.47940 82 ft 22 kts 85°
2026-05-05 17:15 51.46482 -0.47393 81 ft 86 kts 91°
2026-05-05 17:15 51.46489 -0.46055 82 ft 152 kts 89°
2026-05-05 17:15 51.46491 -0.44106 284 ft 190 kts 88°
2026-05-05 17:16 51.46467 -0.41987 1193 ft 188 kts 87°
2026-05-05 17:16 51.46801 -0.40036 2166 ft 183 kts 53°
2026-05-05 17:16 51.47710 -0.38527 2842 ft 197 kts 45°
2026-05-05 17:16 51.48629 -0.36847 3424 ft 207 kts 51°
2026-05-05 17:17 51.49525 -0.35018 4184 ft 209 kts 51°
2026-05-05 17:17 51.50409 -0.33199 5026 ft 207 kts 50°
2026-05-05 17:17 51.51355 -0.31368 5614 ft 218 kts 49°
2026-05-05 17:17 51.52361 -0.29367 5877 ft 244 kts 58°
2026-05-05 17:18 51.52983 -0.26787 5936 ft 250 kts 74°
2026-05-05 17:18 51.53494 -0.24087 6003 ft 263 kts 71°
2026-05-05 17:18 51.54120 -0.21259 5998 ft 273 kts 67°
2026-05-05 17:18 51.55207 -0.18766 5995 ft 273 kts 39°
2026-05-05 17:19 51.56861 -0.17422 5995 ft 271 kts 11°
2026-05-05 17:19 51.58719 -0.17383 6061 ft 269 kts 344°
2026-05-05 17:19 51.60456 -0.18471 6065 ft 269 kts 346°
2026-05-05 17:19 51.62296 -0.18282 6084 ft 271 kts 20°
2026-05-05 17:20 51.63999 -0.16942 6097 ft 272 kts 24°
2026-05-05 17:20 51.65754 -0.15783 6091 ft 273 kts 19°
2026-05-05 17:20 51.67515 -0.14623 6085 ft 274 kts 21°
2026-05-05 17:20 51.69296 -0.13535 6085 ft 274 kts 18°
2026-05-05 17:21 51.71107 -0.12578 6094 ft 274 kts 15°
2026-05-05 17:21 51.72926 -0.11641 6067 ft 275 kts 21°
2026-05-05 17:21 51.74440 -0.09841 6074 ft 277 kts 50°
2026-05-05 17:22 51.75644 -0.04011 6072 ft 278 kts 82°
2026-05-05 17:22 51.75879 -0.00914 6059 ft 279 kts 82°
2026-05-05 17:22 51.76105 0.02153 6046 ft 279 kts 82°
2026-05-05 17:22 51.76349 0.05372 6463 ft 291 kts 82°
2026-05-05 17:23 51.76603 0.08599 7555 ft 286 kts 82°
2026-05-05 17:23 51.76857 0.11756 8657 ft 283 kts 82°
2026-05-05 17:23 51.77113 0.14920 9577 ft 289 kts 82°
2026-05-05 17:23 51.77375 0.18145 10288 ft 298 kts 82°
2026-05-05 17:24 51.77648 0.21572 10611 ft 323 kts 82°
2026-05-05 17:24 51.77951 0.25323 10848 ft 347 kts 80°
2026-05-05 17:24 51.78453 0.29208 11444 ft 357 kts 76°
2026-05-05 17:24 51.79074 0.33115 12288 ft 360 kts 75°
2026-05-05 17:25 51.79729 0.37034 13156 ft 364 kts 75°
2026-05-05 17:25 51.80168 0.39653 13677 ft 368 kts 75°
2026-05-05 17:25 51.81060 0.45027 14751 ft 371 kts 75°
2026-05-05 17:25 51.81723 0.49091 15478 ft 377 kts 76°
2026-05-05 17:26 51.82387 0.53212 16231 ft 381 kts 76°
2026-05-05 17:26 51.83042 0.57324 17026 ft 385 kts 76°
2026-05-05 17:26 51.83711 0.61548 17760 ft 390 kts 76°
2026-05-05 17:26 51.84383 0.65824 18459 ft 395 kts 76°
2026-05-05 17:27 51.85060 0.70144 19146 ft 398 kts 76°
2026-05-05 17:27 51.85742 0.74508 19798 ft 403 kts 76°
2026-05-05 17:27 51.86431 0.78932 20418 ft 408 kts 77°
2026-05-05 17:27 51.87125 0.83393 21100 ft 410 kts 76°
2026-05-05 17:28 51.87820 0.87876 21758 ft 414 kts 77°
2026-05-05 17:28 51.88525 0.92437 22366 ft 419 kts 77°
2026-05-05 17:28 51.89225 0.96985 22984 ft 423 kts 77°
2026-05-05 17:28 51.89938 1.01622 23597 ft 427 kts 77°
2026-05-05 17:29 51.90656 1.06310 24147 ft 430 kts 77°
2026-05-05 17:29 51.91375 1.11015 24704 ft 433 kts 77°
2026-05-05 17:29 51.92100 1.15770 25234 ft 436 kts 77°
2026-05-05 17:29 51.92825 1.20550 25750 ft 440 kts 77°
2026-05-05 17:30 51.93554 1.25365 26240 ft 443 kts 77°
2026-05-05 17:30 51.94293 1.30257 26749 ft 446 kts 77°
2026-05-05 17:30 51.95031 1.35158 27240 ft 449 kts 78°
2026-05-05 17:30 51.95771 1.40096 27720 ft 453 kts 78°
2026-05-05 17:31 51.96516 1.45073 28176 ft 456 kts 78°
2026-05-05 17:31 51.97253 1.50021 28618 ft 459 kts 78°
2026-05-05 17:31 51.98004 1.55071 29063 ft 462 kts 78°
2026-05-05 17:31 51.98757 1.60153 29491 ft 465 kts 78°
2026-05-05 17:32 51.99511 1.65265 29900 ft 468 kts 78°
2026-05-05 17:32 52.00270 1.70415 30249 ft 471 kts 78°
2026-05-05 17:32 52.01031 1.75605 30582 ft 473 kts 79°
2026-05-05 17:32 52.01793 1.80814 30938 ft 475 kts 79°
2026-05-05 17:33 52.02553 1.86027 31398 ft 474 kts 79°
2026-05-05 17:33 52.03308 1.91221 31902 ft 471 kts 79°
2026-05-05 17:33 52.04057 1.96394 32366 ft 470 kts 79°
2026-05-05 17:33 52.04792 2.01489 32765 ft 470 kts 79°
2026-05-05 17:34 52.05535 2.06653 33160 ft 470 kts 79°
2026-05-05 17:34 52.06276 2.11825 33580 ft 469 kts 79°
2026-05-05 17:34 52.07011 2.16975 34008 ft 467 kts 79°
2026-05-05 17:34 52.07743 2.22117 34331 ft 467 kts 79°
2026-05-05 17:35 52.08472 2.27257 34584 ft 468 kts 79°
2026-05-05 17:35 52.09201 2.32420 34843 ft 469 kts 79°
2026-05-05 17:35 52.09921 2.37524 35141 ft 468 kts 79°
2026-05-05 17:35 52.10632 2.42683 35435 ft 468 kts 80°
2026-05-05 17:36 52.11286 2.47866 35714 ft 468 kts 81°
2026-05-05 17:36 52.11906 2.53055 35989 ft 467 kts 82°
2026-05-05 17:36 52.12513 2.58251 36261 ft 467 kts 82°
2026-05-05 17:36 52.13118 2.63447 36527 ft 468 kts 81°
2026-05-05 17:37 52.13727 2.68652 36788 ft 468 kts 81°
2026-05-05 17:37 52.14132 2.72100 36964 ft 468 kts 81°
2026-05-05 17:37 52.14951 2.79050 37310 ft 468 kts 81°
2026-05-05 17:37 52.15564 2.84250 37563 ft 468 kts 81°
2026-05-05 17:38 52.16176 2.89453 37807 ft 468 kts 81°
2026-05-05 17:38 52.16787 2.94655 38044 ft 468 kts 81°
2026-05-05 17:38 52.17395 2.99860 38279 ft 468 kts 81°
2026-05-05 17:38 52.17993 3.05001 38511 ft 468 kts 81°
2026-05-05 17:39 52.18598 3.10213 38716 ft 468 kts 81°
2026-05-05 17:39 52.19200 3.15435 38879 ft 469 kts 81°
2026-05-05 17:39 52.19801 3.20663 38931 ft 471 kts 81°
2026-05-05 17:40 52.20998 3.31154 38928 ft 470 kts 81°
2026-05-05 17:40 52.22179 3.41573 38927 ft 469 kts 81°
2026-05-05 17:41 52.23357 3.52063 38928 ft 468 kts 81°
2026-05-05 17:41 52.24519 3.62501 38926 ft 467 kts 81°
2026-05-05 17:42 52.25663 3.72863 38927 ft 467 kts 82°
2026-05-05 17:42 52.26806 3.83311 38926 ft 468 kts 82°
2026-05-05 17:43 52.27942 3.93770 38925 ft 468 kts 82°
2026-05-05 17:43 52.29069 4.04248 38922 ft 469 kts 82°
2026-05-05 17:44 52.30186 4.14725 38916 ft 469 kts 82°
2026-05-05 17:44 52.31299 4.25253 38917 ft 470 kts 82°
2026-05-05 17:45 52.32396 4.35716 38914 ft 470 kts 82°
2026-05-05 17:45 52.33490 4.46252 38912 ft 471 kts 82°
2026-05-05 17:46 52.34577 4.56817 38912 ft 471 kts 82°
2026-05-05 17:46 52.35655 4.67391 38912 ft 471 kts 82°
2026-05-05 17:47 52.36650 4.77236 38911 ft 472 kts 82°
2026-05-05 17:47 52.37712 4.87841 38911 ft 472 kts 82°
2026-05-05 17:48 52.38762 4.98426 38938 ft 472 kts 83°
2026-05-05 17:48 52.39806 5.09047 38909 ft 472 kts 83°
2026-05-05 17:49 52.40837 5.19639 38894 ft 472 kts 83°
2026-05-05 17:49 52.41853 5.30187 38911 ft 471 kts 83°
2026-05-05 17:50 52.42865 5.40786 38909 ft 471 kts 83°
2026-05-05 17:50 52.43867 5.51390 38910 ft 471 kts 83°
2026-05-05 17:51 52.44860 5.62003 38913 ft 471 kts 83°
2026-05-05 17:51 52.45844 5.72628 38908 ft 472 kts 83°
2026-05-05 17:52 52.46819 5.83264 38908 ft 472 kts 83°
2026-05-05 17:52 52.47776 5.93994 38309 ft 486 kts 84°
2026-05-05 17:52 52.48210 5.99508 37292 ft 488 kts 85°
2026-05-05 17:53 52.48610 6.05094 35611 ft 499 kts 86°
2026-05-05 17:53 52.49004 6.10703 34827 ft 494 kts 87°
2026-05-05 17:53 52.49421 6.16057 35492 ft 457 kts 85°
2026-05-05 17:53 52.49910 6.21066 35993 ft 431 kts 84°
2026-05-05 17:54 52.50421 6.25845 36389 ft 425 kts 83°
2026-05-05 17:54 52.50921 6.30623 36770 ft 424 kts 83°
2026-05-05 17:54 52.51395 6.35393 37130 ft 423 kts 84°
2026-05-05 17:54 52.51844 6.40172 37476 ft 423 kts 84°
2026-05-05 17:55 52.52273 6.44932 37901 ft 419 kts 84°
2026-05-05 17:55 52.52682 6.49610 38541 ft 411 kts 84°
2026-05-05 17:55 52.53083 6.54287 38606 ft 417 kts 84°
2026-05-05 17:56 52.53880 6.63755 38885 ft 422 kts 84°
2026-05-05 17:56 52.54688 6.73453 38892 ft 435 kts 84°
2026-05-05 17:57 52.55513 6.83436 38893 ft 447 kts 84°
2026-05-05 17:57 52.56353 6.93683 38888 ft 458 kts 84°
2026-05-05 17:58 52.57204 7.04177 38895 ft 468 kts 84°
2026-05-05 17:58 52.58063 7.14890 38891 ft 478 kts 84°
2026-05-05 17:59 52.58920 7.25696 38880 ft 481 kts 84°
2026-05-05 17:59 52.59777 7.36622 38887 ft 482 kts 84°
2026-05-05 18:00 52.60623 7.47561 38872 ft 482 kts 84°
2026-05-05 18:00 52.61458 7.58491 38877 ft 482 kts 84°
2026-05-05 18:01 52.62279 7.69365 38869 ft 481 kts 84°
2026-05-05 18:01 52.63092 7.80289 38863 ft 481 kts 85°
2026-05-05 18:02 52.63895 7.91208 38860 ft 480 kts 85°
2026-05-05 18:02 52.64688 8.02135 38864 ft 480 kts 85°
2026-05-05 18:03 52.65470 8.13050 38859 ft 480 kts 85°
2026-05-05 18:03 52.66242 8.23959 38862 ft 479 kts 85°
2026-05-05 18:04 52.66998 8.34795 38856 ft 480 kts 85°
2026-05-05 18:04 52.67748 8.45707 38861 ft 480 kts 85°
2026-05-05 18:05 52.68490 8.56635 38856 ft 480 kts 85°
2026-05-05 18:05 52.69222 8.67565 38858 ft 480 kts 85°
2026-05-05 18:06 52.69939 8.78429 38860 ft 480 kts 85°
2026-05-05 18:06 52.70652 8.89385 38856 ft 481 kts 85°
2026-05-05 18:07 52.71355 9.00352 38854 ft 481 kts 86°
2026-05-05 18:07 52.72049 9.11331 38858 ft 481 kts 86°
2026-05-05 18:08 52.72733 9.22325 38856 ft 482 kts 86°
2026-05-05 18:08 52.73402 9.33248 38856 ft 482 kts 86°
2026-05-05 18:09 52.74066 9.44252 38860 ft 482 kts 86°
2026-05-05 18:09 52.74721 9.55279 38862 ft 483 kts 86°
2026-05-05 18:10 52.75366 9.66309 38869 ft 483 kts 86°
2026-05-05 18:10 52.76002 9.77365 38861 ft 484 kts 86°
2026-05-05 18:11 52.76623 9.88348 38865 ft 484 kts 86°
2026-05-05 18:11 52.77240 9.99426 38861 ft 485 kts 86°
2026-05-05 18:12 52.77845 10.10502 38883 ft 485 kts 86°
2026-05-05 18:12 52.78442 10.21607 38883 ft 485 kts 86°
2026-05-05 18:13 52.79023 10.32612 38877 ft 486 kts 86°
2026-05-05 18:13 52.79601 10.43754 38880 ft 486 kts 87°
2026-05-05 18:14 52.80167 10.54875 38871 ft 486 kts 87°
2026-05-05 18:14 52.80628 10.64100 38874 ft 486 kts 87°
2026-05-05 18:15 52.81264 10.77042 38865 ft 486 kts 87°
2026-05-05 18:15 52.81798 10.88164 38864 ft 486 kts 87°
2026-05-05 18:16 52.82323 10.99291 38864 ft 486 kts 87°
2026-05-05 18:16 52.82752 11.08568 38864 ft 486 kts 88°
2026-05-05 18:17 52.82793 11.19701 38872 ft 484 kts 94°
2026-05-05 18:17 52.82473 11.32641 38869 ft 484 kts 95°
2026-05-05 18:18 52.82206 11.43745 38855 ft 485 kts 94°
2026-05-05 18:18 52.82014 11.53034 38863 ft 485 kts 94°
2026-05-05 18:19 52.81796 11.64173 38859 ft 485 kts 94°
2026-05-05 18:19 52.81572 11.75304 38863 ft 485 kts 94°
2026-05-05 18:20 52.81336 11.86471 38854 ft 486 kts 94°
2026-05-05 18:20 52.81089 11.97548 38865 ft 486 kts 94°
2026-05-05 18:21 52.80829 12.08698 38853 ft 486 kts 94°
2026-05-05 18:21 52.80559 12.19841 38855 ft 486 kts 94°
2026-05-05 18:22 52.80278 12.31026 38852 ft 486 kts 95°
2026-05-05 18:22 52.79987 12.42175 38853 ft 486 kts 95°
2026-05-05 18:23 52.79685 12.53344 38848 ft 486 kts 95°
2026-05-05 18:23 52.79372 12.64495 38857 ft 486 kts 95°
2026-05-05 18:24 52.79051 12.75591 38845 ft 486 kts 95°
2026-05-05 18:24 52.78718 12.86755 38853 ft 486 kts 95°
2026-05-05 18:25 52.78374 12.97915 38846 ft 487 kts 95°
2026-05-05 18:25 52.78020 13.09065 38843 ft 487 kts 95°
2026-05-05 18:26 52.77655 13.20248 38845 ft 487 kts 95°
2026-05-05 18:26 52.77280 13.31385 38840 ft 487 kts 95°
2026-05-05 18:27 52.76896 13.42482 38841 ft 487 kts 95°
2026-05-05 18:27 52.76500 13.53650 38846 ft 487 kts 95°
2026-05-05 18:28 52.75885 13.70412 38842 ft 487 kts 95°
2026-05-05 18:28 52.75464 13.81513 38842 ft 487 kts 95°
2026-05-05 18:29 52.75029 13.92709 38841 ft 487 kts 96°
2026-05-05 18:29 52.74588 14.03786 38838 ft 488 kts 96°
2026-05-05 18:30 52.74134 14.14940 38839 ft 488 kts 96°
2026-05-05 18:30 52.73668 14.26142 38839 ft 488 kts 96°
2026-05-05 18:31 52.73195 14.37230 38836 ft 488 kts 96°
2026-05-05 18:31 52.72709 14.48394 38839 ft 488 kts 96°
2026-05-05 18:32 52.72212 14.59547 38832 ft 488 kts 96°
2026-05-05 18:32 52.71705 14.70710 38841 ft 487 kts 96°
2026-05-05 18:33 52.71191 14.81779 38833 ft 488 kts 96°
2026-05-05 18:33 52.70664 14.92924 38835 ft 487 kts 96°
2026-05-05 18:34 52.70126 15.04059 38850 ft 488 kts 96°
2026-05-05 18:34 52.69576 15.15216 38838 ft 488 kts 96°
2026-05-05 18:35 52.69018 15.26344 38845 ft 488 kts 96°
2026-05-05 18:35 52.68452 15.37408 38837 ft 488 kts 96°
2026-05-05 18:36 52.67873 15.48525 38845 ft 488 kts 96°
2026-05-05 18:36 52.67282 15.59668 38843 ft 488 kts 96°
2026-05-05 18:37 52.66685 15.70726 38839 ft 488 kts 96°
2026-05-05 18:37 52.66075 15.81837 38843 ft 488 kts 97°
2026-05-05 18:38 52.65453 15.92950 38846 ft 488 kts 97°
2026-05-05 18:38 52.64820 16.04091 38845 ft 488 kts 97°
2026-05-05 18:39 52.64179 16.15186 38848 ft 488 kts 97°
2026-05-05 18:39 52.63526 16.26301 38844 ft 487 kts 97°
2026-05-05 18:40 52.62866 16.37354 38839 ft 487 kts 97°
2026-05-05 18:40 52.62193 16.48452 38839 ft 487 kts 97°
2026-05-05 18:41 52.61512 16.59519 38836 ft 487 kts 97°
2026-05-05 18:41 52.60822 16.70546 38834 ft 487 kts 97°
2026-05-05 18:42 52.60119 16.81612 38834 ft 486 kts 97°
2026-05-05 18:42 52.59407 16.92661 38830 ft 486 kts 97°
2026-05-05 18:43 52.58685 17.03701 38834 ft 486 kts 97°
2026-05-05 18:43 52.57950 17.14770 38834 ft 486 kts 97°
2026-05-05 18:44 52.57209 17.25787 38840 ft 485 kts 97°
2026-05-05 18:44 52.56461 17.36743 38836 ft 485 kts 97°
2026-05-05 18:45 52.55700 17.47743 38838 ft 485 kts 97°
2026-05-05 18:45 52.54929 17.58737 38831 ft 484 kts 97°
2026-05-05 18:46 52.54147 17.69732 38836 ft 484 kts 98°
2026-05-05 18:46 52.53362 17.80628 38836 ft 483 kts 98°
2026-05-05 18:47 52.52563 17.91575 38833 ft 483 kts 98°
2026-05-05 18:47 52.51753 18.02528 38828 ft 483 kts 98°
2026-05-05 18:48 52.50934 18.13465 38831 ft 482 kts 98°
2026-05-05 18:48 52.50521 18.18923 38644 ft 486 kts 98°
2026-05-05 18:48 52.50102 18.24426 38383 ft 484 kts 98°
2026-05-05 18:49 52.49686 18.29863 38092 ft 481 kts 98°
2026-05-05 18:49 52.49265 18.35332 37804 ft 482 kts 98°
2026-05-05 18:49 52.48844 18.40767 37397 ft 480 kts 98°
2026-05-05 18:49 52.48423 18.46164 36558 ft 482 kts 98°
2026-05-05 18:50 52.47999 18.51564 35955 ft 478 kts 98°
2026-05-05 18:50 52.47569 18.57007 35108 ft 480 kts 98°
2026-05-05 18:50 52.47139 18.62426 34332 ft 481 kts 98°
2026-05-05 18:50 52.46704 18.67873 33444 ft 484 kts 98°
2026-05-05 18:51 52.46270 18.73354 32576 ft 484 kts 98°
2026-05-05 18:51 52.45866 18.78749 32444 ft 469 kts 98°
2026-05-05 18:51 52.45473 18.84087 32142 ft 478 kts 98°
2026-05-05 18:51 52.45075 18.89503 31902 ft 489 kts 98°
2026-05-05 18:52 52.44662 18.95068 31644 ft 495 kts 98°
2026-05-05 18:52 52.44242 19.00672 31387 ft 491 kts 98°
2026-05-05 18:52 52.43824 19.06200 31112 ft 488 kts 98°
2026-05-05 18:52 52.43401 19.11736 30587 ft 492 kts 98°
2026-05-05 18:53 52.42974 19.17282 29965 ft 487 kts 98°
2026-05-05 18:53 52.42552 19.22725 29269 ft 479 kts 98°
2026-05-05 18:53 52.42133 19.28098 28570 ft 471 kts 99°
2026-05-05 18:53 52.41722 19.33336 28197 ft 459 kts 99°
2026-05-05 18:54 52.41312 19.38526 27947 ft 462 kts 99°
2026-05-05 18:54 52.40891 19.43810 27691 ft 472 kts 99°
2026-05-05 18:54 52.40463 19.49136 27173 ft 470 kts 99°
2026-05-05 18:54 52.40038 19.54425 26495 ft 464 kts 99°
2026-05-05 18:55 52.39625 19.59555 25825 ft 458 kts 99°
2026-05-05 18:55 52.39208 19.64688 25160 ft 453 kts 99°
2026-05-05 18:55 52.38793 19.69782 24516 ft 448 kts 99°
2026-05-05 18:55 52.38382 19.74786 23871 ft 443 kts 99°
2026-05-05 18:56 52.37969 19.79776 23131 ft 441 kts 99°
2026-05-05 18:56 52.37557 19.84732 22433 ft 436 kts 99°
2026-05-05 18:56 52.37151 19.89604 21775 ft 430 kts 99°
2026-05-05 18:56 52.36745 19.94435 21105 ft 426 kts 99°
2026-05-05 18:57 52.36348 19.99147 20501 ft 422 kts 99°
2026-05-05 18:57 52.35947 20.03879 19883 ft 418 kts 99°
2026-05-05 18:57 52.35548 20.08569 19265 ft 414 kts 99°
2026-05-05 18:57 52.35155 20.13154 18680 ft 411 kts 99°
2026-05-05 18:58 52.34755 20.17816 18091 ft 408 kts 99°
2026-05-05 18:58 52.34359 20.22406 17422 ft 404 kts 99°
2026-05-05 18:58 52.33967 20.26919 16760 ft 402 kts 99°
2026-05-05 18:58 52.33574 20.31436 16115 ft 399 kts 100°
2026-05-05 18:59 52.33183 20.35902 15488 ft 396 kts 100°
2026-05-05 18:59 52.32792 20.40347 14871 ft 394 kts 100°
2026-05-05 18:59 52.32406 20.44723 14272 ft 391 kts 101°
2026-05-05 18:59 52.32012 20.49157 13667 ft 389 kts 101°
2026-05-05 19:00 52.31628 20.53468 13019 ft 386 kts 101°
2026-05-05 19:00 52.31243 20.57781 12384 ft 383 kts 101°
2026-05-05 19:00 52.30858 20.62063 12025 ft 374 kts 101°
2026-05-05 19:00 52.30486 20.66207 11491 ft 369 kts 101°
2026-05-05 19:01 52.30112 20.70335 10984 ft 365 kts 102°
2026-05-05 19:01 52.29740 20.74420 10466 ft 361 kts 102°
2026-05-05 19:01 52.29380 20.78384 10371 ft 345 kts 102°
2026-05-05 19:01 52.29029 20.82221 10141 ft 339 kts 102°
2026-05-05 19:02 52.28676 20.86042 9765 ft 341 kts 102°
2026-05-05 19:02 52.28321 20.89879 9396 ft 343 kts 102°
2026-05-05 19:02 52.27972 20.93645 9003 ft 337 kts 102°
2026-05-05 19:02 52.27623 20.97402 8617 ft 331 kts 102°
2026-05-05 19:03 52.27028 21.00940 8172 ft 321 kts 121°
2026-05-05 19:03 52.25718 21.03770 7832 ft 307 kts 141°
2026-05-05 19:03 52.23985 21.05700 7476 ft 296 kts 155°
2026-05-05 19:03 52.22180 21.07237 7110 ft 292 kts 157°
2026-05-05 19:04 52.20385 21.08734 6745 ft 290 kts 156°
2026-05-05 19:04 52.18613 21.10231 6380 ft 287 kts 156°
2026-05-05 19:04 52.16847 21.11740 6013 ft 285 kts 156°
2026-05-05 19:04 52.15106 21.13235 5650 ft 283 kts 155°
2026-05-05 19:05 52.13389 21.14731 5274 ft 281 kts 155°
2026-05-05 19:05 52.11659 21.16246 4904 ft 279 kts 155°
2026-05-05 19:05 52.09954 21.17741 4532 ft 278 kts 155°
2026-05-05 19:05 52.08262 21.19223 4165 ft 276 kts 155°
2026-05-05 19:06 52.06570 21.20703 3792 ft 275 kts 155°
2026-05-05 19:06 52.04896 21.22165 3425 ft 273 kts 154°
2026-05-05 19:06 52.03229 21.23630 3026 ft 270 kts 164°
2026-05-05 19:06 52.01427 21.23839 2952 ft 252 kts 193°
2026-05-05 19:07 51.99915 21.22670 2924 ft 238 kts 217°
2026-05-05 19:07 51.98479 21.21421 2903 ft 239 kts 194°
2026-05-05 19:07 51.96810 21.21041 2894 ft 240 kts 187°
2026-05-05 19:07 51.95197 21.20800 2899 ft 232 kts 187°
2026-05-05 19:08 51.93635 21.20584 2900 ft 218 kts 187°
2026-05-05 19:08 51.92187 21.20173 2885 ft 208 kts 206°
2026-05-05 19:08 51.91145 21.18637 2910 ft 205 kts 240°
2026-05-05 19:08 51.90870 21.16383 2923 ft 211 kts 274°
2026-05-05 19:09 51.91410 21.14141 2950 ft 217 kts 295°
2026-05-05 19:09 51.92192 21.12012 2919 ft 221 kts 296°
2026-05-05 19:09 51.93222 21.10134 2890 ft 231 kts 324°
2026-05-05 19:09 51.94742 21.09383 2912 ft 239 kts 356°
2026-05-05 19:10 51.96420 21.09650 2947 ft 240 kts
2026-05-05 19:10 51.98058 21.10061 2908 ft 242 kts
2026-05-05 19:10 51.99682 21.10480 2911 ft 229 kts
2026-05-05 19:10 52.01194 21.10869 2886 ft 210 kts
2026-05-05 19:11 52.02563 21.10583 2687 ft 193 kts 329°
2026-05-05 19:11 52.03614 21.09378 2533 ft 182 kts 313°
2026-05-05 19:11 52.04538 21.07917 2171 ft 189 kts 309°
2026-05-05 19:11 52.05481 21.06449 1995 ft 182 kts 319°
2026-05-05 19:12 52.06514 21.05460 2029 ft 166 kts 327°
2026-05-05 19:12 52.07527 21.04652 2335 ft 166 kts 328°
2026-05-05 19:12 52.08503 21.03831 3166 ft 144 kts 323°